Flag for Spain Weather past 2 weeks in Almería, Spain

Now
58 °F

Cool.


Feels Like: 58 °F
Forecast: 52 / 68 °F
Wind: 1 mph from North

Location: Almeria / Aeropuerto

Current Time: Apr 18, 2015 at 7:25:20 AM

Latest Report: Apr 18, 2015 at 6:00 AM


Visibility: N/A

Pressure: 29.98 "Hg

Humidity: 82%

Dew point: 52 °F

Location of AlmeríaLocation

Historic Weather in Almería — Graph

°F

Almería temperature yesterday

Maximum temperature yesterday: 68 °F (at 8:00 PM)
Minimum temperature yesterday: 56 °F (at 7:00 AM)
Average temperature yesterday: 62 °F

Past Weeks' High & Low Weather Summary

 TemperatureHumidityPressure
High79 °F (Apr 13, 5:00 PM)97% (Apr 11, 11:00 AM)30.29 "Hg (Apr 11, 11:00 AM)
Low52 °F (Apr 10, 5:00 AM)29% (Apr 14, 1:00 AM)29.83 "Hg (Apr 5, 9:00 AM)
Average63 °F68%30.10 "Hg
* Reported Apr 3 6:00 AM — Apr 18 6:00 AM, Almería, Weather by CustomWeather, © 2015

Note: Actual official high and low records may vary slightly from our data, if they occured in-between our weather recording intervals... More about our weather records

Advertising

Almería weather history for previous 24 hours

 ConditionsComfort  
Time TempWeatherWind HumidityBarometerVisibility
6:00 AM
Sat, Apr 18
58 °FCool.1 mph82%29.98 "HgN/A
5:00 AM58 °FPassing clouds.3 mph83%29.98 "Hg16 mi
4:00 AM58 °FCool.No wind84%30.00 "HgN/A
3:00 AM60 °FCool.2 mph81%30.01 "HgN/A
2:00 AM60 °FCool.1 mph82%30.03 "HgN/A
1:00 AM61 °FCool.No wind83%30.04 "HgN/A
12:00 AM63 °FMild.5 mph70%30.03 "HgN/A
11:00 PM
Fri, Apr 17
64 °FMild.5 mph76%30.03 "HgN/A
10:00 PM63 °FMild.No wind86%30.03 "HgN/A
9:00 PM63 °FMild.2 mph91%30.01 "HgN/A
8:00 PM68 °FScattered clouds.No wind73%29.99 "Hg19 mi
7:00 PM64 °FMild.No wind86%30.01 "HgN/A
6:00 PM65 °FMild.3 mph84%30.00 "HgN/A
5:00 PM64 °FFog.3 mph85%30.01 "Hg3 mi
4:00 PM64 °FMild.3 mph85%30.04 "HgN/A
3:00 PM65 °FMild.5 mph84%30.06 "HgN/A
2:00 PM67 °FFog.6 mph80%30.07 "Hg6 mi
1:00 PM64 °FMild.6 mph84%30.08 "HgN/A
12:00 PM63 °FMild.7 mph87%30.09 "HgN/A
11:00 AM65 °FFog.2 mph81%30.09 "Hg6 mi
10:00 AM62 °FMild.2 mph89%30.09 "HgN/A
9:00 AM59 °FCool.No wind93%30.09 "HgN/A
8:00 AM57 °FFog.2 mph94%30.07 "Hg6 mi
7:00 AM56 °FCool.No wind93%30.06 "HgN/A
Weather by CustomWeather, © 2015

See weather overviewHow to use our weather pages